N3PL Weather Reports


Display with metric or nautical units.
time (UTC)temp
F
wind
direction
speed
MPH
gust
MPH
rain 1hr
in
rain 24hr
in
rain mn
in
humidity
%
barometer
mb
20260831062004 69 185 0.0 0.0 0.00 0.00 0.01 97 1014.0
20260831061605 69 185 0.0 0.0 0.00 0.00 0.01 97 1014.0
20260831061101 69 185 0.0 0.0 0.00 0.00 0.01 97 1014.1
20260831060605 69 185 0.0 0.0 0.00 0.00 0.01 97 1014.1
20260831060000 69 185 0.0 0.0 0.00 0.00 0.01 97 1014.1
20260831055554 69 185 0.0 0.0 0.00 0.00 0.01 97 1014.2
20260831055057 69 185 0.0 0.0 0.00 0.00 0.01 97 1014.2
20260831054609 69 185 0.0 0.0 0.00 0.00 0.01 96 1014.2
20260831054008 69 185 0.0 0.0 0.00 0.00 0.01 96 1014.1
20260831053600 69 185 0.0 0.0 0.00 0.00 0.01 96 1014.1
20260831053103 69 184 0.0 0.0 0.00 0.00 0.01 96 1014.1
20260831052606 69 182 0.0 0.0 0.00 0.00 0.01 96 1014.1
20260831052004 69 182 0.0 0.0 0.00 0.00 0.01 96 1014.1
20260831051606 69 182 0.0 0.0 0.00 0.00 0.01 96 1014.1
20260831051101 69 182 0.0 0.0 0.00 0.00 0.01 96 1014.3
20260831050605 69 182 0.0 0.0 0.00 0.00 0.01 96 1014.3
20260831050005 69 184 0.0 0.0 0.00 0.00 0.00 96 1014.3
20260831045505 69 184 0.0 0.0 0.00 0.00 0.00 95 1014.2
20260831045008 69 184 0.0 0.0 0.00 0.00 0.00 95 1014.2
20260831044511 69 184 0.0 0.0 0.00 0.00 0.00 95 1014.2
20260831044103 69 184 0.0 0.0 0.00 0.00 0.00 95 1014.1
20260831043500 69 184 0.0 0.0 0.00 0.00 0.00 95 1014.1
20260831043006 69 184 0.0 0.0 0.00 0.00 0.00 95 1014.1
20260831042509 69 184 0.0 0.0 0.00 0.00 0.00 94 1014.2
20260831042010 69 184 0.0 0.0 0.00 0.00 0.00 94 1014.2
20260831041604 69 184 0.0 0.0 0.00 0.00 0.00 94 1014.2
20260831041001 69 184 0.0 0.0 0.00 0.00 0.00 94 1014.3
20260831040505 69 184 0.0 0.0 0.00 0.00 0.00 93 1014.3
20260831040008 69 184 0.0 0.0 0.00 0.00 0.00 93 1014.3
20260831035601 69 184 0.0 0.0 0.00 0.00 0.07 93 1014.4
20260831035105 69 184 0.0 0.0 0.00 0.00 0.07 92 1014.4
20260831034512 69 184 0.0 0.0 0.00 0.00 0.07 92 1014.4
20260831034103 69 184 0.0 0.0 0.00 0.00 0.07 92 1014.4
20260831033501 69 184 0.0 0.0 0.00 0.00 0.07 92 1014.4
20260831033004 69 184 0.0 0.0 0.00 0.00 0.07 91 1014.4
20260831032507 69 184 0.0 0.0 0.00 0.00 0.07 91 1014.7
20260831032101 69 184 0.0 0.0 0.00 0.00 0.07 90 1014.7
20260831031604 69 184 0.0 0.0 0.00 0.00 0.07 90 1014.7
20260831031001 70 184 0.0 0.0 0.00 0.00 0.07 88 1014.9
20260831030505 70 184 0.0 0.0 0.00 0.00 0.07 87 1014.9
20260831030103 70 184 0.0 0.0 0.00 0.00 0.07 86 1014.9
20260831025606 71 168 0.0 0.0 0.00 0.00 0.06 84 1014.8
20260831025004 72 263 0.0 0.0 0.00 0.00 0.06 86 1014.8
20260831024508 72 261 0.0 0.0 0.00 0.00 0.06 89 1014.8
20260831024100 73 260 0.0 0.0 0.00 0.00 0.06 90 1014.6
20260831023557 73 270 0.0 0.0 0.00 0.00 0.06 92 1014.6
20260831023040 74 227 0.0 0.0 0.00 0.00 0.06 92 1014.6
20260831022548 74 227 0.0 0.0 0.00 0.00 0.06 92 1014.3
20260831022055 74 227 0.0 0.0 0.00 0.00 0.06 91 1014.3
20260831021601 74 227 0.0 0.0 0.00 0.00 0.06 91 1014.3
20260831021104 74 227 0.0 0.0 0.00 0.00 0.06 90 1014.3
20260831020505 74 227 0.0 0.0 0.00 0.00 0.06 90 1014.3
20260831020007 74 227 0.0 0.0 0.00 0.00 0.06 90 1014.3
20260831015508 74 227 0.0 0.0 0.00 0.00 0.06 89 1014.3
20260831015104 74 227 0.0 0.0 0.00 0.00 0.06 89 1014.3
20260831014550 74 227 0.0 0.0 0.00 0.00 0.06 89 1014.3
20260831014052 75 227 0.0 0.0 0.00 0.00 0.06 89 1014.3
20260831013555 75 227 0.0 0.0 0.00 0.00 0.06 88 1014.3
20260831013109 75 227 0.0 0.0 0.00 0.00 0.06 88 1014.3
20260831012607 75 227 0.0 0.0 0.00 0.00 0.06 88 1014.5
20260831012003 75 227 0.0 0.0 0.00 0.00 0.06 88 1014.5
20260831011505 75 227 0.0 0.0 0.00 0.00 0.06 88 1014.5
20260831011008 75 227 0.0 0.0 0.00 0.00 0.06 87 1014.3
20260831010603 75 227 0.0 0.0 0.00 0.00 0.06 87 1014.3
20260831010104 75 227 0.0 0.0 0.00 0.00 0.06 86 1014.3
20260831005505 76 227 0.0 0.0 0.00 0.00 0.06 85 1014.2
20260831005013 76 227 0.0 0.0 0.00 0.00 0.06 85 1014.2
20260831004602 76 227 0.0 0.0 0.00 0.00 0.06 85 1014.2
20260831004105 76 227 0.0 0.0 0.00 0.00 0.06 85 1014.0
20260831003503 76 227 0.0 0.0 0.00 0.00 0.06 84 1014.0
20260831003007 76 227 0.0 0.0 0.00 0.00 0.06 84 1014.0
20260831002600 76 227 0.0 0.0 0.00 0.00 0.06 84 1013.8
20260831002103 76 227 0.0 0.0 0.00 0.00 0.06 84 1013.8
20260831001501 76 227 0.0 0.0 0.00 0.00 0.06 84 1013.8
20260831001004 76 227 0.0 0.0 0.00 0.00 0.06 84 1013.7
20260831000557 76 227 0.0 0.0 0.00 0.00 0.06 84 1013.7
20260831000100 76 227 0.0 0.0 0.00 0.00 0.06 84 1013.7
20260830235605 77 227 0.0 0.0 0.00 0.00 0.05 83 1013.9
20260830235106 77 227 0.0 0.0 0.00 0.00 0.05 82 1013.9
20260830234557 77 227 0.0 0.0 0.00 0.00 0.05 81 1013.9
20260830234059 77 227 0.0 0.0 0.00 0.00 0.05 81 1013.9
20260830233603 77 227 0.0 0.0 0.00 0.00 0.05 81 1013.9
20260830233004 77 227 0.0 0.0 0.00 0.00 0.05 79 1013.9
20260830232558 77 227 0.0 0.0 0.00 0.00 0.05 79 1013.7
20260830232106 78 227 0.0 0.0 0.00 0.00 0.05 78 1013.7
20260830231504 78 227 0.0 0.0 0.00 0.00 0.05 77 1013.7
20260830231058 78 227 0.0 0.0 0.00 0.00 0.05 77 1013.8
20260830230605 78 227 0.0 0.0 0.00 0.00 0.05 76 1013.8
20260830230003 79 227 0.0 0.0 0.00 0.00 0.05 75 1013.8
20260830225507 79 227 0.0 0.0 0.00 0.00 0.05 75 1013.8
20260830225101 79 227 0.0 0.0 0.00 0.00 0.05 75 1013.8
20260830224604 79 227 0.0 0.0 0.00 0.00 0.05 74 1013.8
20260830224001 79 227 0.0 0.0 0.00 0.00 0.05 74 1013.8
20260830223503 79 227 0.0 0.0 0.00 0.00 0.05 73 1013.8
20260830223111 80 227 0.0 0.0 0.00 0.00 0.05 73 1013.8
20260830222605 80 227 0.0 0.0 0.00 0.00 0.05 72 1013.9
20260830222003 80 227 0.0 0.0 0.00 0.00 0.05 72 1013.9
20260830221506 80 227 0.0 0.0 0.00 0.00 0.05 73 1013.9
20260830221100 80 227 0.0 0.0 0.00 0.00 0.05 73 1013.7
20260830220603 80 227 0.0 0.0 0.00 0.00 0.05 73 1013.7
20260830220105 80 227 0.0 0.0 0.00 0.00 0.04 73 1013.7
20260830215508 80 227 0.0 0.0 0.00 0.00 0.04 73 1013.6
20260830215059 80 227 0.0 0.0 0.00 0.00 0.04 73 1013.6
20260830214619 80 227 0.0 0.0 0.00 0.00 0.04 72 1013.6
20260830214107 80 227 0.0 0.0 0.00 0.00 0.04 72 1013.7
20260830213503 80 227 0.0 0.0 0.00 0.00 0.04 72 1013.7
20260830213014 80 227 0.0 0.0 0.00 0.00 0.04 72 1013.7
20260830212511 80 227 0.0 0.0 0.00 0.00 0.04 72 1013.7
20260830212013 80 227 0.0 0.0 0.00 0.00 0.04 71 1013.7
20260830211610 80 227 0.0 0.0 0.00 0.00 0.04 72 1013.7
20260830211004 80 227 0.0 0.0 0.00 0.00 0.04 72 1013.8
20260830210507 80 227 0.0 0.0 0.00 0.00 0.04 73 1013.8
20260830210010 80 227 0.0 0.0 0.00 0.00 0.04 74 1013.8
20260830205605 79 227 0.0 0.0 0.00 0.00 0.04 73 1013.8
20260830205054 79 227 0.0 0.0 0.00 0.00 0.04 73 1013.8
20260830204608 79 227 0.0 0.0 0.00 0.00 0.04 73 1013.8
20260830204057 79 227 0.0 0.0 0.00 0.00 0.04 74 1014.0
20260830203600 79 227 0.0 0.0 0.00 0.00 0.04 74 1014.0
20260830203106 78 227 0.0 0.0 0.00 0.00 0.04 75 1014.0
20260830202554 78 227 0.0 0.0 0.00 0.00 0.04 75 1014.0
20260830202100 78 227 0.0 0.0 0.00 0.00 0.04 75 1014.0
20260830201604 78 227 0.0 0.0 0.00 0.00 0.04 77 1014.0
20260830201104 78 227 0.0 0.0 0.00 0.00 0.04 77 1014.4
20260830200501 77 227 0.0 0.0 0.00 0.00 0.04 78 1014.4
20260830200055 77 227 0.0 0.0 0.00 0.00 0.04 78 1014.4
20260830195559 77 227 0.0 0.0 0.00 0.00 0.04 79 1014.5
20260830195109 77 227 0.0 0.0 0.00 0.00 0.04 80 1014.5
20260830194504 77 227 0.0 0.0 0.00 0.00 0.04 79 1014.5
20260830194007 77 227 0.0 0.0 0.00 0.00 0.04 79 1014.8
20260830193509 77 227 0.0 0.0 0.00 0.00 0.04 77 1014.8
20260830193013 77 227 0.0 0.0 0.00 0.00 0.04 76 1014.8
20260830192606 78 227 0.0 0.0 0.00 0.00 0.04 75 1015.1
20260830192054 78 226 0.0 0.0 0.00 0.00 0.03 73 1015.1
20260830191601 78 226 0.0 0.0 0.00 0.00 0.03 73 1015.1
20260830191104 79 226 0.0 0.0 0.00 0.00 0.03 72 1015.2
20260830190553 79 226 0.0 0.0 0.00 0.00 0.03 72 1015.2
20260830190131 79 226 0.0 0.0 0.00 0.00 0.03 71 1015.2
20260830185605 79 226 0.0 0.0 0.00 0.00 0.03 70 1015.1
20260830185001 79 226 0.0 0.0 0.00 0.00 0.03 70 1015.1
20260830184608 79 226 0.0 0.0 0.00 0.00 0.03 69 1015.1
20260830184040 79 226 0.0 0.0 0.00 0.00 0.03 69 1015.3
20260830183543 79 226 0.0 0.0 0.00 0.00 0.03 68 1015.3
20260830183058 80 236 0.0 0.0 0.00 0.00 0.03 68 1015.3
20260830182554 80 236 0.0 0.0 0.00 0.00 0.03 67 1015.4
20260830182042 80 236 0.0 0.0 0.00 0.00 0.03 66 1015.4
20260830181544 81 263 0.0 0.0 0.00 0.00 0.03 65 1015.4
20260830181047 81 268 0.0 0.0 0.00 0.00 0.03 65 1015.4
20260830180553 81 243 0.0 0.0 0.00 0.00 0.03 64 1015.4
20260830180110 81 205 0.0 0.0 0.00 0.00 0.03 64 1015.4
20260830175552 81 205 0.0 0.0 0.00 0.00 0.03 65 1015.6
20260830175059 81 205 0.0 0.0 0.00 0.00 0.03 63 1015.6
20260830174611 81 205 0.0 0.0 0.00 0.00 0.03 63 1015.6
20260830174006 81 205 0.0 0.0 0.00 0.00 0.03 64 1015.8
20260830173559 80 205 0.0 0.0 0.00 0.00 0.03 63 1015.8
20260830173102 80 265 0.0 0.0 0.00 0.00 0.03 63 1015.8
20260830172607 79 191 0.0 0.0 0.00 0.00 0.02 65 1016.0
20260830172053 79 191 0.0 0.0 0.00 0.00 0.02 65 1016.0
20260830171556 79 191 0.0 0.0 0.00 0.00 0.02 65 1016.0
20260830171058 79 191 0.0 0.0 0.00 0.00 0.02 65 1016.2
20260830170605 80 191 0.0 0.0 0.00 0.00 0.02 65 1016.2
20260830170106 80 191 0.0 0.0 0.00 0.00 0.02 64 1016.2
20260830165503 80 189 0.0 0.0 0.00 0.00 0.02 63 1016.3
20260830165006 81 257 0.0 0.0 0.00 0.00 0.02 63 1016.3
20260830164509 81 178 0.0 0.0 0.00 0.00 0.02 63 1016.3
20260830164104 80 268 0.0 0.0 0.00 0.00 0.02 63 1016.4
20260830163501 80 339 0.0 0.0 0.00 0.00 0.02 65 1016.4
20260830163005 80 257 0.0 0.0 0.00 0.00 0.02 66 1016.4
20260830162508 79 250 0.0 0.0 0.00 0.00 0.02 68 1016.6
20260830162101 79 157 0.0 0.0 0.00 0.00 0.02 68 1016.6
20260830161606 79 151 0.0 0.0 0.00 0.00 0.02 69 1016.6
20260830161004 79 220 0.0 0.0 0.00 0.00 0.02 70 1016.7
20260830160507 78 220 0.0 0.0 0.00 0.00 0.02 71 1016.7
20260830155603 77 220 0.0 0.0 0.00 0.00 0.02 72 1016.7
20260830155107 77 220 0.0 0.0 0.00 0.00 0.02 75 1016.7
20260830154504 77 253 0.0 0.0 0.00 0.00 0.02 76 1016.7
20260830154058 76 253 0.0 0.0 0.00 0.00 0.02 77 1016.8
20260830153602 76 253 0.0 0.0 0.00 0.00 0.02 77 1016.8
20260830153108 76 311 0.0 0.0 0.00 0.00 0.02 79 1016.8
20260830152551 75 311 0.0 0.0 0.00 0.00 0.02 81 1016.9
20260830152055 75 311 0.0 0.0 0.00 0.00 0.02 81 1016.9
20260830151604 74 311 0.0 0.0 0.00 0.00 0.02 81 1016.9
20260830151107 74 311 0.0 0.0 0.00 0.00 0.02 81 1016.9
20260830150507 74 311 0.0 0.0 0.00 0.00 0.02 82 1016.9
20260830150012 74 281 0.0 0.0 0.00 0.00 0.02 83 1016.9
20260830145603 74 281 0.0 0.0 0.00 0.00 0.02 84 1016.7
20260830145058 74 281 0.0 0.0 0.00 0.00 0.02 84 1016.7
20260830144601 73 281 0.0 0.0 0.00 0.00 0.02 84 1016.7
20260830144001 73 281 0.0 0.0 0.00 0.00 0.02 85 1016.9
20260830143555 73 281 0.0 0.0 0.00 0.00 0.02 86 1016.9
20260830143107 73 281 0.0 0.0 0.00 0.00 0.02 87 1016.9
20260830142603 73 281 0.0 0.0 0.00 0.00 0.02 88 1017.2
20260830142105 72 281 0.0 0.0 0.00 0.00 0.02 88 1017.2
20260830141554 72 312 0.0 0.0 0.00 0.00 0.01 89 1017.2
20260830141058 71 312 0.0 0.0 0.00 0.00 0.01 89 1017.3
20260830140604 71 313 0.0 0.0 0.00 0.00 0.01 90 1017.3
20260830140001 70 313 0.0 0.0 0.00 0.00 0.01 91 1017.3
20260830135504 70 312 0.0 0.0 0.00 0.00 0.01 92 1017.5
20260830135007 70 312 0.0 0.0 0.00 0.00 0.01 93 1017.5
20260830134519 69 312 0.0 0.0 0.00 0.00 0.01 93 1017.5
20260830134108 69 312 0.0 0.0 0.00 0.00 0.01 94 1017.7
20260830133501 68 312 0.0 0.0 0.00 0.00 0.01 94 1017.7
20260830133005 68 312 0.0 0.0 0.00 0.00 0.01 95 1017.7
20260830132507 67 312 0.0 0.0 0.00 0.00 0.01 96 1017.9
20260830132101 67 312 0.0 0.0 0.00 0.00 0.01 96 1017.9
20260830131502 66 312 0.0 0.0 0.00 0.00 0.01 96 1017.9
20260830131006 66 312 0.0 0.0 0.00 0.00 0.01 96 1018.1
20260830130509 66 312 0.0 0.0 0.00 0.00 0.01 96 1018.1
20260830130104 65 312 0.0 0.0 0.00 0.00 0.01 96 1018.1
20260830125605 65 312 0.0 0.0 0.00 0.00 0.01 96 1018.2
20260830125003 65 312 0.0 0.0 0.00 0.00 0.01 96 1018.2
20260830124507 65 312 0.0 0.0 0.00 0.00 0.01 96 1018.2
20260830124102 65 312 0.0 0.0 0.00 0.00 0.01 97 1018.3
20260830123501 65 312 0.0 0.0 0.00 0.00 0.01 97 1018.3
20260830123004 64 312 0.0 0.0 0.00 0.00 0.01 98 1018.3
20260830122507 63 312 0.0 0.0 0.00 0.00 0.01 98 1018.3
20260830122100 62 312 0.0 0.0 0.00 0.00 0.01 97 1018.3
20260830121604 62 312 0.0 0.0 0.00 0.00 0.01 97 1018.3
20260830121001 61 312 0.0 0.0 0.00 0.00 0.01 97 1018.3
20260830120508 61 312 0.0 0.0 0.00 0.00 0.01 97 1018.3
20260830115547 60 312 0.0 0.0 0.00 0.00 0.01 96 1018.2
20260830115054 60 312 0.0 0.0 0.00 0.00 0.01 96 1018.2
20260830114558 60 312 0.0 0.0 0.00 0.00 0.01 96 1018.2
20260830114104 60 312 0.0 0.0 0.00 0.00 0.01 96 1018.2
20260830113509 60 312 0.0 0.0 0.00 0.00 0.01 96 1018.2
20260830113106 60 312 0.0 0.0 0.00 0.00 0.01 97 1018.2
20260830112605 59 312 0.0 0.0 0.00 0.00 0.01 97 1018.2
20260830112003 59 312 0.0 0.0 0.00 0.00 0.01 97 1018.2
20260830111505 59 312 0.0 0.0 0.00 0.00 0.01 96 1018.2
20260830111057 59 312 0.0 0.0 0.00 0.00 0.01 96 1018.2
20260830110601 59 312 0.0 0.0 0.00 0.00 0.01 96 1018.2
20260830110104 58 312 0.0 0.0 0.00 0.00 0.01 96 1018.2
20260830105504 58 312 0.0 0.0 0.00 0.00 0.01 97 1018.2
20260830105059 58 312 0.0 0.0 0.00 0.00 0.01 96 1018.2
20260830104613 58 312 0.0 0.0 0.00 0.00 0.01 96 1018.2
20260830104105 58 312 0.0 0.0 0.00 0.00 0.01 96 1018.1
20260830103511 58 312 0.0 0.0 0.00 0.00 0.01 96 1018.1
20260830103100 58 312 0.0 0.0 0.00 0.00 0.01 96 1018.1
20260830102603 58 312 0.0 0.0 0.00 0.00 0.01 96 1018.2
20260830102001 58 312 0.0 0.0 0.00 0.00 0.01 96 1018.2
20260830101510 58 312 0.0 0.0 0.00 0.00 0.01 96 1018.2
20260830101059 58 312 0.0 0.0 0.00 0.00 0.01 96 1018.2
20260830100603 58 312 0.0 0.0 0.00 0.00 0.01 96 1018.2
20260830100107 57 312 0.0 0.0 0.00 0.00 0.01 96 1018.2
20260830095502 57 312 0.0 0.0 0.00 0.00 0.01 96 1018.1
20260830095055 57 312 0.0 0.0 0.00 0.00 0.00 96 1018.1
20260830094559 57 312 0.0 0.0 0.00 0.00 0.00 96 1018.1
20260830094108 57 312 0.0 0.0 0.00 0.00 0.00 96 1018.2
20260830093553 57 312 0.0 0.0 0.00 0.00 0.00 96 1018.2
20260830093105 57 312 0.0 0.0 0.00 0.00 0.00 96 1018.2
20260830092605 57 312 0.0 0.0 0.00 0.00 0.00 96 1018.1
20260830092002 57 312 0.0 0.0 0.00 0.00 0.00 96 1018.1
20260830091506 57 312 0.0 0.0 0.00 0.00 0.00 96 1018.1
20260830091009 57 312 0.0 0.0 0.00 0.00 0.00 96 1018.0
20260830090603 57 312 0.0 0.0 0.00 0.00 0.00 96 1018.0
20260830090056 58 312 0.0 0.0 0.00 0.00 0.00 96 1018.0
20260830085506 58 312 0.0 0.0 0.00 0.00 0.00 95 1018.1
20260830085056 58 312 0.0 0.0 0.00 0.00 0.00 95 1018.1
20260830084502 58 312 0.0 0.0 0.00 0.00 0.00 95 1018.1
20260830084005 58 312 0.0 0.0 0.00 0.00 0.00 95 1018.1
20260830083600 58 312 0.0 0.0 0.00 0.00 0.00 95 1018.1
20260830083005 58 312 0.0 0.0 0.00 0.00 0.00 95 1018.1
20260830082558 58 312 0.0 0.0 0.00 0.00 0.00 95 1018.4
20260830082048 58 312 0.0 0.0 0.00 0.00 0.00 96 1018.4
20260830081556 58 312 0.0 0.0 0.00 0.00 0.00 95 1018.4
20260830081101 58 312 0.0 0.0 0.00 0.00 0.00 95 1018.7
20260830080605 58 312 0.0 0.0 0.00 0.00 0.00 95 1018.7
20260830080002 57 312 0.0 0.0 0.00 0.00 0.00 95 1018.7
20260830075557 58 312 0.0 0.0 0.00 0.00 0.00 95 1018.6
20260830075100 58 312 0.0 0.0 0.00 0.00 0.00 95 1018.6
20260830074605 58 312 0.0 0.0 0.00 0.00 0.00 95 1018.6
20260830074107 58 312 0.0 0.0 0.00 0.00 0.00 95 1018.5
20260830073553 58 312 0.0 0.0 0.00 0.00 0.00 95 1018.5
20260830073116 58 312 0.0 0.0 0.00 0.00 0.00 95 1018.5
20260830072503 58 312 0.0 0.0 0.00 0.00 0.00 95 1018.6
20260830072055 58 312 0.0 0.0 0.00 0.00 0.00 95 1018.6
20260830071603 58 312 0.0 0.0 0.00 0.00 0.00 95 1018.6
20260830071105 58 312 0.0 0.0 0.00 0.00 0.00 95 1018.6
20260830070506 57 312 0.0 0.0 0.00 0.00 0.00 95 1018.6
20260830070059 57 312 0.0 0.0 0.00 0.00 0.00 95 1018.6
20260830065601 57 312 0.0 0.0 0.00 0.00 0.00 94 1018.7
20260830065104 57 312 0.0 0.0 0.00 0.00 0.00 94 1018.7
20260830064501 57 312 0.0 0.0 0.00 0.00 0.00 94 1018.7
20260830064005 57 312 0.0 0.0 0.00 0.00 0.00 94 1018.8
20260830063511 57 312 0.0 0.0 0.00 0.00 0.00 94 1018.8
20260830063011 57 312 0.0 0.0 0.00 0.00 0.00 94 1018.8